Regional Weather Roundup
Issued by NWS Boston, MA

Current Version | Previous Version | Graphics & Text | Print | Product List | Glossary On
Versions: 1 2 3 4 5 6 7 8 9 10 11 12 13 14 15 16 17 18 19 20 21 22 23 24 25 26 27 28 29 30 31 32 33 34 35 36 37 38 39 40 41 42 43 44 45 46 47 48 49
000
ASUS41 KBOX 070005
RWRBOX

REGIONAL WEATHER ROUNDUP
NATIONAL WEATHER SERVICE BOSTON/NORTON MA
700 PM EST SAT MAR 06 2021

NOTE:  "FAIR" INDICATES FEW OR NO CLOUDS BELOW 12,000 FEET WITH NO
SIGNIFICANT WEATHER AND/OR OBSTRUCTIONS TO VISIBILITY.

MAZALL-070100-
EASTERN MASSACHUSETTS

CITY           SKY/WX    TMP DP  RH WIND       PRES   REMARKS
BOSTON         PTCLDY    32   7  35 W13       30.07R WCI  22
6HR MIN TEMP:  32; 6HR MAX TEMP:  36;

BEVERLY        CLEAR     30   6  36 NW9       30.05R WCI  22
LAWRENCE       CLEAR     28   7  41 W10       30.08R WCI  19
BEDFORD        CLEAR     28   8  43 NW10      30.06R WCI  19
BLUE HILL        N/A     26   8  46 W10G18    30.02R WCI  16
NORWOOD        CLEAR     30   7  37 W9        30.07R WCI  22
MARSHFIELD     FLURRIES  30  10  43 W5        30.05R WCI  25
PLYMOUTH       CLEAR     28   8  43 W6        30.05R WCI  22
TAUNTON        CLEAR     30   7  37 W9        30.07R WCI  22
NEW BEDFORD    CLEAR     31   8  38 W14G22    30.07R WCI  21
$$

MAZALL-070100-
CAPE COD AND THE ISLANDS

CITY           SKY/WX    TMP DP  RH WIND       PRES   REMARKS
FALMOUTH       CLEAR     30   7  37 W13       30.04R WCI  20
HYANNIS        CLEAR     30  12  47 W6        30.03R WCI  24
CHATHAM        CLEAR     30  16  56 VRB3      30.05R
PROVINCETOWN   MOCLDY    27  16  63 CALM      30.06R
NANTUCKET      CLEAR     30  21  69 W13       30.07R WCI  20
MARTHAS VNYRD  CLEAR     30  10  43 W7        30.06R WCI  23
$$

MAZALL-070100-
CENTRAL AND WESTERN MASSACHUSETTS

CITY           SKY/WX    TMP DP  RH WIND       PRES   REMARKS
WORCESTER      CLEAR     23   7  50 W14       30.03R WCI  11
6HR MIN TEMP:  23; 6HR MAX TEMP:  30;

FITCHBURG      CLEAR     25  10  53 W15       30.07R WCI  13
ORANGE         CLOUDY    24   9  52 VRB7G20   30.09R WCI  16
SPRINGFIELD    MOCLDY    24   7  47 NW17G28   30.12R WCI  11
WESTFIELD      MOCLDY    24   8  50 NW13G24   30.13R WCI  12
NORTH ADAMS    CLOUDY    22   6  50 W13G20    30.10R WCI  10
PITTSFIELD     CLOUDY    19   7  59 W10       30.06R WCI   7
$$

RIZALL-070100-
RHODE ISLAND

CITY           SKY/WX    TMP DP  RH WIND       PRES   REMARKS
PROVIDENCE     PTCLDY    28   8  43 NW15G23   30.10R WCI  16
6HR MIN TEMP:  28; 6HR MAX TEMP:  36;

NEWPORT        CLEAR     28   9  44 W14G22    30.08R WCI  17
BLOCK ISLAND   PTCLDY    28  12  51 NW13G23   30.11R WCI  17
SMITHFIELD     CLEAR     25  10  53 W13       30.07R WCI  14
WESTERLY       CLEAR     27   8  44 VRB5      30.11R WCI  22
$$

CTZALL-070100-
CONNECTICUT

CITY           SKY/WX    TMP DP  RH WIND       PRES   REMARKS
BRADLEY INTL   PTCLDY    25   9  50 NW10G20   30.14R WCI  15
6HR MIN TEMP:  25; 6HR MAX TEMP:  34;

HARTFORD       MOCLDY    28   9  44 NW9       30.14R WCI  19
BRIDGEPORT     CLOUDY    32  12  43 NW8       30.14R WCI  25
DANBURY        CLOUDY    30   8  39 W10       30.13R WCI  21
GROTON         CLEAR     28   9  44 NW13      30.12R WCI  17
NEW HAVEN      CLOUDY    32  11  41 N9        30.13R WCI  24
CHESTER        CLOUDY    28   9  43 NW6G15    30.11R WCI  22
MERIDEN        CLOUDY    29  11  47 W8        30.14R WCI  21
WILLIMANTIC    MOCLDY    26   9  48 NW6       30.12R WCI  19
OXFORD         CLOUDY    26  13  57 NW10      30.10R WCI  16
$$

MEZ002-015-021-024-NHZ003-005-008-011-012-014-VTZ005-008-070100-
NORTHERN NEW ENGLAND

CITY           SKY/WX    TMP DP  RH WIND       PRES   REMARKS
PORTLAND ME    CLOUDY    28   8  43 NW15      30.02R WCI  16
6HR MIN TEMP:  28; 6HR MAX TEMP:  34;

BANGOR ME      PTCLDY    26   8  46 W8        29.97R WCI  18
CONCORD NH     PTCLDY    25   6  44 W10       30.05R WCI  15
MANCHESTER NH  PTCLDY    28   5  37 W7        30.05R WCI  21
NASHUA NH      PTCLDY    27   8  44 NW9       30.07R WCI  18
PORTSMOUTH NH  MOCLDY    28   1  31 W12       30.04R WCI  18
JAFFREY NH     CLOUDY    23   8  52 W8G17     30.02R WCI  14
KEENE NH       CLOUDY    24  11  57 W9        30.07R WCI  14
BURLINGTON VT  CLOUDY    21   4  47 NW8G20    30.14R WCI  11
MT. WASHINGTON FOG       -8  -8 100 W33         N/A  VSB 1/16WCI -37
$$

NYZ052-076-070100-
EASTERN NEW YORK

CITY           SKY/WX    TMP DP  RH WIND       PRES   REMARKS
ALBANY         CLOUDY    22   7  52 W7        30.15R WCI  13
6HR MIN TEMP:  21; 6HR MAX TEMP:  25;

NEW YORK CITY  MOCLDY    32  10  40 NW20G31   30.17R WCI  20
6HR MIN TEMP:  32; 6HR MAX TEMP:  34;

$$

ANZALL-070100-
MARINE OBSERVATIONS

STATION/POSITION TIME  TEMP    WIND        PRES    VSBY  WAVE
                       AIR SEA DIR/SP/G                  HT/PER
                 (UTC) (F)     (DEG/KT/KT) (MB)    (MI)  (FT/S)
BOSTON BUOY      2340      40  260/ 16/ 19 1017.7R
BUZZARDS BAY     2300          280/ 18/ 20 1018.3R
NANTUCKET SOUND  2340      36  240/ 14/ 17   N/A
MASS BAY-STELLWA 2304   33     280/ 12/ 16 1015.4R  1 7/8  1/ 3
ISLE OF SHOALS   2300   31     290/ 14/ 16 1016.0R
S OF BLOCK IS    2326      41                N/A           5/ 6
$$

......................KEY.........................
  SKY/WX - SKY CONDITION/PRESENT WEATHER
  TMP    - TEMPERATURE IN FAHRENHEIT
  DWPT   - DEWPOINT IN FAHRENHEIT
  RH     - RELATIVE HUMIDITY IN PERCENT
  WIND   - DIRECTION AND SPEED IN MPH
  PRES   - MEAN SEA LEVEL PRESSURE IN INCHES OF HG
  WCI    - WIND CHILL INDEX
  VSB    - VISIBILITY IN MILES
  HX     - HEAT INDEX
  TC     - TEMPERATURE IN CELSIUS
  VRB    - VARIABLE WIND DIRECTION
  N/A    - NOT AVAILABLE




USA.gov is the U.S. government's official web portal to all federal, state and local government web resources and services.